Airfield :
LOGIN :

Register | Disclaimer

   EN    FR    IT 

 










Legend :    VFR   Marginal VFR   IFR   Intensive IFR   Very Intensive IFR
Visi :
Ceiling :
>= 8 km
>= 3000ft
5 to 8 km
1000 to 3000 ft
1500m to 5 km
500 to 1000 ft
800 to 1500m
200 to 500 ft
< 800m
< 200 ft
Symbols :   Thunderstorms  Fog  Heavy snow  Heavy precipitations  Wind > 20 kt
SIGMETs :     Misc.  Thunderstorms  Icing  Turbulence  Mountain Waves  Volcanic Ashes







- Airport Elevation : 30 ft
- IATA code : CFN


EIDL - Donegal

CURRENT METAR :
  • 171830Z 24007KT 5000 RA OVC008 14/13 Q1001 RERA

EXPIRED METARs :
  • 171700Z 22010KT 9999 FEW007 SCT023 15/14 Q1001
  • 171630Z 23006KT 6000 RA FEW006 OVC032 15/14 Q1001 RERA

TAF COR TAF EIDL
Valid from the 17 at 18:00 until the 17 at 21:00 UTC


171705Z 1718/1721 23010KT 9999 FEW008 BKN025
BECMG 1718/1721 29016G26KT
TEMPO 1718/1721 5000 SHRA BKN008 SCT018CB
No reported NOTAMs for that airfield.



MET'MAP, your aeronautical weather chart ! - Copyright ORBIFLY December 2007 - Disclaimer

ORBIFLY MET'MAP TEAM :

Programming & Development : Alexandra Zaïnal
Concept & Development : Baudouin d'Aumeries
Co-Development & Prog : Marc-Olivier Méhu
Technical & hardware support : Manuel Goepfert

Contact : metmap@orbifly.com




SOURCES & CREDITS :

   NOAA